[[{"header":{"parameterUnit":"m.s-1","parameterCategory":1,"la1":30.2991,"la2":30.254,"lo1":-89.0895,"lo2":-89.0444,"dy":0.0017,"dx":0.0017,"nx":28,"ny":28,"refTime":"2024-05-22T03:00:00:Z","depth":0,"parameterNumber":2,"parameterNumberName":"U-component_of_WINDS"},"data":[0,0,0,0,0,0,0,0,0,0,0,0,0,0,0,0,0,0,0,0,0,0,0,0,0,0,0,0,0,0,0,0,0,0,0,0,0,0,0,0,0,0,0,0,0,0,0,0,0,0,0,0,0,0,0,0,0,0,-2.0259,-2.0259,0,-2.0267,-2.0267,-2.0267,-2.0258,-2.0258,-2.0258,-2.0257,-2.0266,-2.0266,-2.0267,0,0,0,0,0,0,0,0,0,0,0,0,0,-2.0237,-2.0237,-2.0259,-2.0259,-2.0259,-2.0267,-2.0267,-2.0267,-2.0258,-2.0258,-2.0257,-2.0257,-2.0266,-2.0266,-2.0267,0,0,0,0,0,0,0,0,0,0,0,0,0,-2.0246,-2.0237,-2.0259,-2.0255,-2.0255,-2.0267,-2.0267,-2.0267,-2.0258,-2.0258,-2.0257,-2.0257,-2.0265,-2.0266,-2.0267,-2.0282,0,0,-2.0269,-2.027,0,0,0,0,0,0,0,0,-2.0245,-2.0246,-2.0256,-2.0256,-2.0255,-2.0261,-2.0262,-2.0272,-2.0258,-2.0257,-2.0257,-2.0257,-2.0265,-2.0265,-2.0268,-2.0282,-2.0283,-2.0269,-2.027,-2.027,-2.0271,0,0,0,0,0,0,0,-2.0244,-2.0246,-2.0262,-2.0256,-2.0256,-2.0254,-2.0255,-2.0264,-2.0264,-2.0257,-2.0257,-2.0258,-2.0264,-2.0267,-2.0268,-2.0283,-2.0269,-2.027,-2.0271,-2.0271,-2.0311,-2.0311,0,0,0,0,0,0,-2.0244,-2.0246,-2.0262,-2.0262,-2.0249,-2.0255,-2.0256,-2.026,-2.0263,-2.0264,-2.0258,-2.0257,-2.0266,-2.0267,-2.0268,-2.0286,-2.027,-2.0271,-2.0271,-2.031,-2.0311,-2.0312,0,0,0,0,0,0,-2.0244,-2.0246,-2.0261,-2.0254,-2.0256,-2.0256,-2.026,-2.026,-2.0263,-2.0264,-2.0264,-2.0261,-2.0266,-2.0267,-2.0279,-2.0286,-2.0271,-2.0272,-2.031,-2.031,-2.0311,-2.0322,0,0,0,0,0,0,-2.0243,-2.0246,-2.0251,-2.0254,-2.0256,-2.0271,-2.0261,-2.0261,-2.0264,-2.0263,-2.0267,-2.0267,-2.0266,-2.0278,-2.028,-2.0287,-2.0273,-2.0309,-2.031,-2.0311,-2.0321,-2.0323,-2.0325,0,0,0,0,0,-2.0242,-2.0254,-2.0251,-2.0253,-2.0263,-2.0272,-2.0273,-2.0271,-2.0265,-2.0271,-2.0272,-2.0267,-2.0286,-2.0279,-2.0281,-2.0289,-2.0308,-2.031,-2.0311,-2.032,-2.0323,-2.0325,0,0,0,0,0,0,-2.0251,-2.0254,-2.0251,-2.0264,-2.0268,-2.027,-2.0277,-2.0274,-2.0279,-2.0278,-2.0276,-2.0276,-2.0289,-2.029,-2.0283,-2.0304,-2.0296,-2.0298,-2.0303,-2.0305,-2.0307,-2.0306,-2.0273,0,0,0,0,0,-2.0255,-2.0262,-2.0264,-2.0275,-2.0277,-2.0277,-2.0281,-2.0279,-2.0283,-2.0284,-2.0286,-2.029,-2.0297,-2.0301,-2.0308,-2.0322,-2.0323,-2.0329,-2.0331,-2.0332,-2.0334,-2.0342,-2.0344,-2.0316,-2.0316,-2.0316,0,0,-2.0262,-2.0264,-2.0269,-2.0277,-2.0279,-2.0287,-2.0278,-2.0286,-2.0292,-2.0285,-2.0296,-2.0298,-2.0302,-2.0315,-2.0321,-2.0317,-2.0342,-2.0334,-2.0335,-2.0336,-2.0343,-2.0346,-2.0348,-2.0317,-2.0316,-2.0316,0,0,-2.0278,-2.0281,-2.029,-2.0294,-2.0298,-2.0298,-2.0301,-2.0304,-2.0305,-2.0316,-2.0311,-2.0318,-2.033,-2.0333,-2.0337,-2.0356,-2.0352,-2.0359,-2.0369,-2.0377,-2.0379,-2.0381,-2.0387,-2.039,-2.036,-2.036,-2.036,0,-2.0287,-2.0297,-2.0296,-2.0304,-2.0308,-2.0303,-2.0313,-2.0316,-2.0323,-2.0325,-2.0321,-2.0336,-2.0339,-2.0353,-2.0358,-2.0361,-2.0363,-2.0357,-2.0379,-2.0381,-2.0382,-2.0389,-2.0391,-2.0361,-2.0361,-2.0361,-2.0361,0,-2.0307,-2.0315,-2.0322,-2.0328,-2.0333,-2.0342,-2.0342,-2.0348,-2.0346,-2.0347,-2.0358,-2.0362,-2.0369,-2.0372,-2.0371,-2.0386,-2.0383,-2.0379,-2.037,-2.0386,-2.0391,-2.0394,-2.0362,-2.0362,-2.0361,-2.0361,0,0,-2.0328,-2.0334,-2.0337,-2.034,-2.0345,-2.0351,-2.0361,-2.0368,-2.0372,-2.0377,-2.0385,-2.0396,-2.0392,-2.0395,-2.0394,-2.0401,-2.0416,-2.0396,-2.0396,-2.0399,-2.0434,-2.0436,-2.0439,-2.0414,-2.0415,-2.0415,-2.0433,0,-2.0344,-2.036,-2.036,-2.0374,-2.0382,-2.0378,-2.0386,-2.0391,-2.0392,-2.0399,-2.04,-2.0408,-2.0402,-2.0405,-2.0411,-2.0413,-2.0423,-2.0412,-2.0421,-2.0422,-2.0419,-2.0442,-2.0445,-2.0461,-2.0435,-2.0436,-2.0436,0,-2.0365,-2.0371,-2.0386,-2.0391,-2.0394,-2.0401,-2.0408,-2.0415,-2.042,-2.042,-2.0425,-2.0423,-2.0433,-2.0426,-2.0439,-2.0432,-2.0436,-2.0437,-2.0438,-2.0438,-2.0429,-2.0442,-2.0467,-2.0469,-2.044,-2.0439,-2.0439,0,-2.0378,-2.039,-2.0401,-2.0404,-2.041,-2.0415,-2.0418,-2.0422,-2.0427,-2.0433,-2.0436,-2.0444,-2.0447,-2.0453,-2.0454,-2.0448,-2.0467,-2.046,-2.0468,-2.0468,-2.0471,-2.0471,-2.0496,-2.0475,-2.0475,-2.0475,-2.0475,0,-2.0396,-2.0406,-2.0407,-2.0414,-2.0424,-2.0424,-2.0435,-2.0438,-2.0442,-2.0449,-2.0447,-2.0454,-2.0454,-2.0462,-2.0462,-2.0473,-2.0475,-2.0476,-2.0476,-2.0476,-2.0475,-2.0477,-2.0476,-2.0476,-2.0476,-2.0476,-2.0476,0,-2.0412,-2.0413,-2.0425,-2.043,-2.0431,-2.0439,-2.0443,-2.045,-2.0452,-2.0461,-2.0463,-2.0466,-2.0474,-2.0476,-2.0486,-2.0486,-2.0499,-2.0498,-2.0497,-2.0497,-2.0505,-2.0504,-2.0531,-2.0535,-2.0513,-2.0513,-2.0513,0,-2.0423,-2.043,-2.0436,-2.0441,-2.0444,-2.0451,-2.0456,-2.0457,-2.0462,-2.0469,-2.0474,-2.0483,-2.0489,-2.0503,-2.0506,-2.0514,-2.0512,-2.0522,-2.0514,-2.0513,-2.0512,-2.0511,-2.0512,-2.0523,-2.0523,-2.0523,-2.0523,0,-2.0442,-2.0442,-2.0449,-2.0456,-2.0462,-2.0468,-2.0473,-2.0477,-2.0479,-2.0485,-2.0493,-2.0499,-2.0509,-2.0517,-2.0525,-2.0528,-2.0526,-2.0526,-2.0528,-2.0528,-2.0527,-2.0527,-2.0501,-2.0525,-2.0525,-2.0525,-2.0525,-2.0525,-2.0455,-2.0461,-2.0466,-2.0474,-2.0479,-2.0484,-2.049,-2.0493,-2.05,-2.0509,-2.0509,-2.0519,-2.0524,-2.0535,-2.0539,-2.0546,-2.0543,-2.0546,-2.0547,-2.0548,-2.0548,-2.0526,-2.0548,-2.0548,-2.0548,-2.0548,-2.0548,0,-2.0473,-2.0477,-2.0484,-2.0492,-2.0498,-2.0496,-2.0502,-2.0508,-2.0516,-2.0522,-2.0528,-2.0538,-2.0547,-2.0551,-2.0559,-2.0564,-2.0564,-2.0566,-2.0566,-2.0566,-2.0551,-2.0548,-2.0567,-2.0567,-2.0567,-2.0567,-2.0567,-2.0567,-2.0483,-2.0494,-2.0495,-2.0509,-2.0512,-2.0521,-2.0525,-2.053,-2.0534,-2.0546,-2.0553,-2.0555,-2.0561,-2.0569,-2.0577,-2.0578,-2.0581,-2.0584,-2.0584,-2.0569,-2.0567,-2.0566,-2.0563,-2.0585,-2.0585,-2.0599,-2.0599,-2.06]},{"header":{"parameterUnit":"m.s-1","parameterCategory":1,"la1":30.2991,"la2":30.254,"lo1":-89.0895,"lo2":-89.0444,"dy":0.0017,"dx":0.0017,"nx":28,"ny":28,"refTime":"2024-05-22T03:00:00:Z","depth":0,"parameterNumber":3,"parameterNumberName":"V-component_of_WINDS"},"data":[0,0,0,0,0,0,0,0,0,0,0,0,0,0,0,0,0,0,0,0,0,0,0,0,0,0,0,0,0,0,0,0,0,0,0,0,0,0,0,0,0,0,0,0,0,0,0,0,0,0,0,0,0,0,0,0,0,0,5.4836,5.4836,0,5.4766,5.4765,5.4764,5.4655,5.4653,5.4651,5.4649,5.4575,5.4575,5.4575,0,0,0,0,0,0,0,0,0,0,0,0,0,5.4877,5.4877,5.4837,5.4836,5.4835,5.4766,5.4765,5.4764,5.4655,5.4653,5.465,5.4648,5.4575,5.4575,5.4575,0,0,0,0,0,0,0,0,0,0,0,0,0,5.4839,5.4877,5.4837,5.4772,5.4766,5.4766,5.4765,5.4763,5.4656,5.4653,5.465,5.4647,5.4575,5.4575,5.4575,5.4632,0,0,5.4574,5.4574,0,0,0,0,0,0,0,0,5.4841,5.4837,5.4783,5.4777,5.4769,5.4716,5.4752,5.4719,5.4656,5.4697,5.4649,5.4646,5.4624,5.462,5.4613,5.4628,5.4625,5.4574,5.4574,5.4574,5.4574,0,0,0,0,0,0,0,5.4844,5.484,5.4808,5.4782,5.4774,5.4747,5.4738,5.4745,5.4678,5.4694,5.4686,5.4679,5.462,5.4613,5.461,5.4624,5.4574,5.4574,5.4574,5.4574,5.4683,5.4686,0,0,0,0,0,0,5.4856,5.4843,5.4811,5.4806,5.4799,5.4748,5.4739,5.4736,5.4678,5.4666,5.4681,5.4674,5.4615,5.4611,5.4607,5.467,5.4574,5.4574,5.4573,5.468,5.4684,5.4687,0,0,0,0,0,0,5.4857,5.4854,5.4813,5.4822,5.4815,5.4751,5.4749,5.4736,5.4729,5.4668,5.4656,5.4687,5.4613,5.4608,5.4627,5.4666,5.4573,5.4573,5.4676,5.4681,5.4685,5.4797,0,0,0,0,0,0,5.4859,5.4855,5.4876,5.4824,5.4815,5.4835,5.4751,5.4737,5.4729,5.4719,5.467,5.4659,5.461,5.4628,5.4627,5.4664,5.4573,5.4672,5.4678,5.4684,5.4789,5.4805,5.4818,0,0,0,0,0,5.4861,5.491,5.4878,5.4875,5.484,5.4837,5.4832,5.4775,5.4733,5.4754,5.4715,5.4661,5.4662,5.4631,5.4628,5.4667,5.467,5.4677,5.4683,5.4783,5.4802,5.4818,0,0,0,0,0,0,5.4969,5.4902,5.4866,5.4899,5.4875,5.4819,5.4843,5.4796,5.4783,5.4774,5.4703,5.4693,5.4721,5.4695,5.4661,5.4719,5.4658,5.4665,5.4734,5.4752,5.4766,5.4771,5.4573,0,0,0,0,0,5.4997,5.5,5.4941,5.4977,5.4967,5.4908,5.4904,5.4862,5.4834,5.4822,5.4784,5.4759,5.4753,5.4751,5.4742,5.4786,5.4773,5.4811,5.4825,5.4837,5.4844,5.4865,5.4881,5.4709,5.4709,5.4709,0,0,5.5054,5.5018,5.5024,5.4998,5.4974,5.4979,5.4899,5.4908,5.4911,5.4823,5.4839,5.4811,5.4777,5.4809,5.4821,5.4789,5.4888,5.4846,5.4856,5.4856,5.4873,5.489,5.4904,5.4714,5.4713,5.4712,0,0,5.5161,5.5134,5.5161,5.5139,5.5104,5.5064,5.5071,5.5022,5.5,5.5015,5.495,5.4953,5.4945,5.4923,5.4912,5.5013,5.4963,5.5012,5.5086,5.5107,5.5121,5.5132,5.5168,5.5182,5.5019,5.5019,5.5019,0,5.5236,5.5241,5.518,5.5193,5.5184,5.5106,5.5133,5.5114,5.5078,5.5074,5.5038,5.5027,5.4999,5.5025,5.505,5.5043,5.5048,5.5017,5.5124,5.5135,5.5145,5.5178,5.5192,5.5025,5.5024,5.5024,5.5023,0,5.5336,5.5341,5.5367,5.5335,5.5328,5.5348,5.529,5.5291,5.525,5.5215,5.5231,5.5195,5.5178,5.5181,5.5141,5.5201,5.5183,5.5137,5.5074,5.5168,5.5199,5.5211,5.5034,5.5032,5.503,5.5028,0,0,5.5508,5.5443,5.5453,5.5438,5.5395,5.5397,5.5414,5.5398,5.54,5.5378,5.539,5.5386,5.5344,5.5331,5.5288,5.5307,5.5389,5.5258,5.5256,5.5284,5.5454,5.5489,5.5504,5.5356,5.5359,5.536,5.5457,0,5.5606,5.5631,5.5577,5.5615,5.5619,5.5545,5.556,5.5535,5.5502,5.5501,5.5464,5.5463,5.5407,5.5399,5.5414,5.5376,5.5422,5.5368,5.5367,5.5367,5.5377,5.552,5.5556,5.5649,5.5468,5.547,5.5471,0,5.5723,5.5708,5.5747,5.5702,5.5701,5.5715,5.5697,5.5696,5.5667,5.5642,5.5628,5.5578,5.5591,5.5532,5.5549,5.5513,5.551,5.5491,5.5493,5.549,5.5425,5.5521,5.5677,5.5691,5.5489,5.5488,5.5487,0,5.5845,5.5834,5.5856,5.5845,5.5793,5.5805,5.5784,5.5751,5.5745,5.5729,5.5725,5.5711,5.5703,5.5693,5.5641,5.5602,5.5664,5.56,5.5644,5.5645,5.5659,5.5659,5.5817,5.5658,5.5658,5.5657,5.5657,0,5.5959,5.5986,5.591,5.5923,5.5951,5.5889,5.5918,5.589,5.5862,5.5868,5.5804,5.5812,5.5742,5.5742,5.5701,5.5722,5.5719,5.5699,5.5688,5.5704,5.5707,5.57,5.5693,5.5661,5.566,5.566,5.5659,0,5.6099,5.6049,5.6069,5.6018,5.6006,5.6029,5.5986,5.5996,5.596,5.5969,5.5968,5.5911,5.5908,5.5855,5.584,5.5812,5.5849,5.5826,5.586,5.5852,5.5899,5.5895,5.6057,5.6076,5.5906,5.5908,5.5909,0,5.6176,5.6194,5.6146,5.6147,5.6129,5.613,5.6124,5.6064,5.606,5.6029,5.6043,5.6035,5.6025,5.6023,5.598,5.5969,5.5945,5.6002,5.5942,5.5959,5.5945,5.5945,5.5946,5.6015,5.6017,5.6019,5.602,0,5.6316,5.6291,5.6285,5.6271,5.6266,5.6252,5.6234,5.6238,5.6172,5.6172,5.6168,5.6161,5.6146,5.6139,5.612,5.6097,5.6048,5.604,5.6049,5.6066,5.6085,5.6076,5.5894,5.6036,5.6035,5.6033,5.6033,5.6032,5.6426,5.644,5.6409,5.6405,5.6385,5.637,5.6377,5.6343,5.6339,5.6323,5.6287,5.629,5.626,5.6229,5.6212,5.6212,5.6182,5.6196,5.6199,5.6204,5.6213,5.6086,5.6208,5.6208,5.6207,5.6207,5.6207,0,5.6564,5.654,5.6537,5.6515,5.6512,5.6466,5.6444,5.6445,5.6448,5.6424,5.6416,5.6412,5.6405,5.6363,5.6351,5.6359,5.6337,5.6358,5.6357,5.6353,5.624,5.6233,5.6377,5.6377,5.6377,5.6377,5.6377,5.6377,5.6635,5.6656,5.6627,5.6638,5.6614,5.6616,5.6607,5.6593,5.6574,5.6573,5.6567,5.6539,5.6508,5.6494,5.6485,5.6473,5.6471,5.6501,5.6481,5.6377,5.636,5.6345,5.6338,5.6501,5.6501,5.6593,5.6594,5.6595]}]]